Location: Dittelbrunn
(50.0738°N, 10.2196°E)
Time: 22:56:45
(UTC+00:00)

USA 234 - Pass Details

Date: 18 September 2020
Orbit: 1102 x 1106 km, 123.0° (Epoch: 16 October)

Event Time Altitude Azimuth Distance (km) Brightness Sun altitude
Rises 23:41:40 0° 84° (E) 3,920 6.3 -38.2°
Reaches altitude 10° 23:44:13 10° 79° (E) 2,963 5.7 -38.1°
Maximum altitude 23:50:28 50° 7° (N) 1,374 3.9 -37.9°
Enters shadow 23:50:38 50° 2° (N) 1,376 3.9 -37.9°
Exits shadow 23:54:28 23° 303° (WNW) 2,171 4.9 -37.8°
Drops below altitude 10° 23:56:44 10° 294° (WNW) 2,967 5.6 -37.7°
Sets 23:59:17 0° 290° (WNW) 3,926 6.2 -37.6°
